星链-33635 (STARLINK-33635)

导读

STARLINK-33635是美国SpaceX公司星链星座的第二代卫星,于2025年2月21日发射升空,部署于近地轨道。作为星链全球低轨互联网星座的一员,它配备增强型相控阵天线与激光星间链路,单星容量超100Gbps,可为全球提供低延迟高速宽带服务,覆盖偏远地区并支持航空、海洋通信等多元应用,助力星座实现全球网络覆盖。

基本信息
目录编号:
63065
目录名称:
STARLINK-33635
国际标识:
2025-035P
轨道中心:
EARTH
卫星名称:
星链-33635
卫星全名:
星链-33635 (STARLINK-33635)
卫星状态:
在轨 (已飞行560 天)
发射日期:
2025-02-21 UTC
国别 :
美国 (US)
星等 :
--
轨道信息
数据来源 国际轨道数据 AOE轨道数据
星历时间 2026-09-03T16:49:56+0800
1天前
查看轨道信息
2026-09-01T23:00:00+0800
2天前
查看轨道信息
半长轴 6861.159km 6861.143km
偏心率 0.0001399 0.0001116
轨道倾角 43.000° 43.001°
近地点辐角 267.151° 213.311°
升交点赤经 223.618° 233.466°
平近点角 92.918° 270.205°
近地点 482.062km 482.24km
远地点 483.982km 483.772km
周期 94.266分钟 94.266分钟
每日圈数 15.275892 15.275944
详细信息
固有亮度:
5
最大亮度:
2.5
卫星平台:
Starlink V1.0
覆盖范围:
全球
运营商:
太空探索技术公司
运营商所在国:
美国
制造商(研发单位):
太空探索技术公司
制造商所在国:
美国
使用方式:
暂无
卫星简介
Starlink 计划是 SpaceX 推出的全球卫星互联网项目,通过发射低轨道卫星,为全球尤其是偏远地区提供高速、低延迟的互联网服务。自 2019 年起,Starlink 已部署数千颗卫星,旨在缩小全球数字鸿沟,推动互联网普及。该项目还为军事、航空等行业提供通信支持,带来广泛经济效益。
2D轨道图
3D轨道图
轨道高度分析图
轨道倾角分析图
轨道综合分析图
查看轨道综合分析图
交会数据列表
事件ID 空间交会对象 最接近时刻(TCA) 交会距离 交会风险概率(CRP) 交会风险指数(CRI) 操作
CDM_260903-101106-306506-790521
2026-09-03T
10:11:09+0000
1.076 km
极远距离
1.348538E-5 中风险 0.58
CDM_260904-195006-306506-746021
2026-09-04T
19:50:49+0000
1.326 km
极远距离
4.883788E-6 低风险 0.49
CDM_260904-111206-306506-746021
2026-09-04T
11:12:58+0000
1.357 km
极远距离
4.530473E-6 低风险 0.48
CDM_260904-124706-306506-746021
2026-09-04T
12:47:07+0000
1.562 km
极远距离
2.900291E-6 低风险 0.44
CDM_260903-233106-306506-790521
2026-09-03T
23:31:29+0000
1.721 km
极远距离
2.887294E-6 低风险 0.44
CDM_260904-221006-306506-793821
2026-09-04T
22:10:33+0000
1.616 km
极远距离
2.211842E-6 低风险 0.42
CDM_260903-114506-306506-790521
2026-09-03T
11:45:18+0000
1.970 km
极远距离
2.003499E-6 低风险 0.41
CDM_260904-010506-306506-790521
2026-09-04T
01:05:38+0000
2.534 km
极远距离
1.18574E-6 低风险 0.36
CDM_260903-083706-306506-790521
2026-09-03T
08:37:00+0000
2.554 km
极远距离
1.170038E-6 低风险 0.36
CDM_260904-234406-306506-793821
2026-09-04T
23:44:42+0000
2.124 km
极远距离
1.10567E-6 低风险 0.36